CZ-3A DEB, 40813

Orbit data source: Space-Track

CZ-3A DEB, 40813 is space debris in HEO originally from a launch on Fri, 02 Feb 2007 UTC launched from the Xichang Space Center, China (XSC). Debris objects in space refer to the collection of defunct objects orbiting the Earth. Examples of debris include non-operational satellites, rocket bodies, and fragments generated from explosions, collisions, or faulty payload assembly.

Loading next visibility...
Identifier
40813, 2007-003AS
Orbit
HEO
Country
Flag of CNCN / PRC
Related business
Manufacturer
Unknown
Mission
Spacecraft
Bus & Motor
Unknown
Mass
Unknown
Launch date (UTC)
2007-02-02 (19 years ago)
Launch vehicle
Unknown
Launch site
Xichang Space Center, China (XSC)
Object type
Payload
Rocket body
Debris
Shape & HBR
Unknown shape, 0.3 m
Radar Cross Section
Medium (>0.1 m² and <1 m²)

Expand to show TLE details & history
Last TLE update: 5 days ago

TLE from 5 days ago
0 CZ-3A DEB
1 40813U 07003AS  26121.02383442  .00000420  00000-0  65792-2 0  9991
2 40813  27.0325  69.1922 7657501 177.0195 194.6485  1.72470638 83654
Epoch: 2026-05-01T00:34Z
TLE epoch observation values (Epoch: 2026-05-01T00:34:19.293Z)
Latitude
-0.00002°
Longitude
-158.37307°
Altitude
45,268.535 km
Speed
1.366 km/s
True Right ascension
04h 36m 40s
True Declination
0° 00' 00"
Sunlit
Object was in daylight at epoch
Visualization orbit readout
Latitude
Unknown
Longitude
Unknown
Altitude
Unknown
Speed
Unknown
Apparent Right ascension
Unknown
Apparent Declination
Unknown
Sunlit
N/A
Visualization observer readout
Local Sidereal Time
16:36:00
Azimuth
Unknown
Elevation
Unknown
Doppler factor
Unknown
Orbital elements
Apogee altitude
45,491.366 km
Perigee altitude
503.033 km
Semi-major axis
29,375.337 km
Eccentricity
0.76575
Inclination
27.0325°
RAAN
69.1922°
Arg. of periapsis
177.0195°
True anomaly
183.03082°
Mean anomaly
194.6485°
Eccentric anomaly
188.30852°
Mean motion
0.43109 °/min
Orbital period
835.09 mins
BSTAR
0.0065792
Loading maneuver chart data...
Computing Atmospheric mass density...
Loading historical data...
Loading historical data...
Loading historical data...
Loading historical data...
Loading historical data...
Loading historical data...
Loading historical data...

Documentation

Showing up to 5 results
|